Погода в Каунасе

Погода в Каунасе : погода сейчас, прогноз погоды и архив. Всё, что Вы хотите узнать о погоде в Каунасе!

Поиск расширенной информации на нашем сайте:

Другие новости

Новости СМИ2

Главная страница сайта

Новости сайта

03.07.2017

Напоминаем, что на нашем специализированном сайте Метеоцентр.Азия вы можете получить высокодетализированные автоматические прогнозы погоды по пунктам России, СНГ и мира в авиационном формате (включающие направление и скорость ветра, видимость, явления погоды, количество и форму облачности, нижнюю и верхнюю границу облачности).

Рекомендуем: застройщик продает. квартиры в Новостройках от застройщика в Новосибирске. новостройки дешево

Погода в Каунасе - сегодня

Время (UTC), дата Ветер
(°,м/с) 
Видим.   Явления Облачность Т
(°С)
Тd
(°С)
f(%) Тe
(°С)
Pmin
(гПа)
dP
(гПа)
Po
(мм)
O2
(г/м3)
Тmin Tmax R s Состояние
почвы
18 11.11.18 150 (ЮВ) 8-11{13}  8000 м  дымка  10/10 300 м 
[Sc]
+4.3 +3.3 93 +1  1023.5  0.2  760  301    +4.6       
21 11.11.18 150 (ЮВ) 8-11{12}  6000 м  дымка  10/10 270 м 
[Sc]
+4.8 +3.7 93 +2  1023.8  0.4  761  301           
00 12.11.18 160 (Ю) 8-11{12}  5000 м  дымка  10/10 210 м 
[Sc]
+4.2 +3.5 95 +1  1024.5  0.6  761  302           
03 12.11.18 150 (ЮВ) 7-10{12}  5000 м  дымка  10/10 180 м 
[Sc]
+3.7 +3 95 +1  1025.4  0.9  762  302           
06 12.11.18 160 (Ю) 7-10{12}  5000 м  дымка  10/10 180 м 
[Sc]
+3.7 +3 95 +1  1026.3  0.9  762  303  +3.6        влажная 
09 12.11.18 160 (Ю) 7-9{12}  7000 м  дымка  10/10 210 м 
[Sc]
+3.7 +2.9 94 +1  1027.3  763  303           
12 12.11.18 160 (Ю) 7-9{12}  6000 м  дымка  10/10 270 м 
[Sc]
+4 +3.1 94 +1  1026.9  -0.4  763  303           
15 12.11.18 170 (Ю) 7-10{11}  5000 м  дымка  10/10 240 м 
[Sc]
+4.1 +3.2 94 +1  1026.9  763  302           
18 12.11.18 170 (Ю) 8-11{11}  4600 м  дымка  10/10 210 м 
[Sc]
+3.9 +3.1 95 +1  1026.6  -0.3  763  303    +4.2       
21 12.11.18 170 (Ю) 8-11{12}  3700 м  дымка  10/10 240 м 
[Sc]
+4.1 +3.2 94 +1  1025.6  -1  762  302           
00 13.11.18 170 (Ю) 7-10{12}  4700 м  дымка  10/10 300 м 
[Sc]
+4.9 +3.9 93 +2  1025.4  -0.2  762  301           
03 13.11.18 180 (Ю) 8-12{12}  4500 м  дымка  10/10 240 м 
[Sc]
+5.4 +4.3 93 +2  1024.2  -1.1  761  300           
06 13.11.18 180 (Ю) 9-12{12}  4300 м  дымка  10/10 100 м 
[Sc]
+5.7 +4.9 95 +2  1023.5  -0.7  760  299  +3.8    0.0    влажная 
09 13.11.18 180 (Ю) 7-11{12}  6000 м  дымка  10/9 240 м средняя 
[Sc|As op]
+6.4 +5.3 93 +4  1022.9  -0.6  760  298           
12 13.11.18 180 (Ю) 8-11{12}  6000 м  дымка  10/10 240 м 
[Sc]
+6.9 +5.6 91 +4  1021.3  -1.5  759  297           
15 13.11.18 180 (Ю) 7-10{11}  4600 м  слаб. дождь  10/10 270 м 
[Ns]
+7 +5.9 93 +5  1020.3  -1  758  297           
18 13.11.18 190 (Ю) 6-9{11}  3200 м  дождь  10/10 150 м 
[Frnb|Ns]
+6.7 +6.3 97 +5  1019.1  -1.2  757  297    +7.1     
21 13.11.18 210 (ЮЗ) 3-5{09}  3000 м  дождь  10/10 150 м 
[Frnb|Ns]
+6.8 +6.7 99 +6  1017.9  -1.2  756  296           
00 14.11.18 300 (СЗ) 3-5{05}  8000 м  в посл. час дождь  10/10 180 м 
[Frnb|Ns]
+8 +7.9 99 +7  1017.7  -0.2  756  295      13     
03 14.11.18 310 (СЗ) 3-6{07}  20000 м  {дождь}  10/10 240 м 
[Frnb|Ns]
+7.9 +7.5 97 +7  1018.3  0.6  757  295           
06 14.11.18 300 (СЗ) 3-4{06}  20000 м  {дождь}  10/10 210 м 
[Sc]
+7.3 +7 98 +7  1019.6  1.3  758  296  +6.6    14    влажная 
09 14.11.18 320 (СЗ) 2-4{05}  20000 м    9/9 210 м 
[Sc]
+7.9 +7.2 95 +8  1020.9  1.3  759  296           
12 14.11.18 320 (СЗ) 2-5{05}  20000 м    9/9 270 м 
[Sc]
+8.5 +7.4 93 +9  1022.1  1.2  759  296           
15 14.11.18 320 (СЗ) 1-3{05}  19000 м  {дождь}  9/3 1000 м средняя 
[Sc|Ac As]
+7.7 +7.1 96 +9  1024.2  2.1  761  297           
18 14.11.18 310 (СЗ) 2-3{03}  5000 м  дымка{дождь}  9/4 1500 м средняя 
[Sc|Ac trans]
+7.1 +6.9 99 +7  1025.5  1.2  762  298    +8.6  0.0     
Время (UTC), дата Ветер
(°,м/с) 
Видим.   Явления Облачность Т
(°С)
Тd
(°С)
f(%) Тe
(°С)
Pmin
(гПа)
dP
(гПа)
Po
(мм)
O2
(г/м3)
Тmin Tmax R s Состояние
почвы

Для получения пояснительной информации подведите курсор к названию столбца.

ПОГОДА в Каунасе - архив

Всё, что Вы хотите узнать о погоде в Каунасе - удобно и подробно!

Выберите нужную дату (начиная с 1 января 2015* года) и нажмите кнопку "Найти".
Будут отображены архивные сводки погоды по пункту Каунас, начиная с указанной даты.


Отображать данные в формате CSV (для использования в таблицах Excel)


Внимание! Наш архив погоды предназначен исключительно для личного некоммерческого использования в познавательных целях. Если Вам необходимы официальные справки о состоянии погоды (для производственных, юридических, коммерческих и т.п. целей), обращайтесь в органы Росгидромета.

*Примечание: данная дата относится к архиву по метеостанциям СССР (Россия, СНГ, Балтия).
Архив по метеостанциям Зарубежной Европы и Азии (кроме Китая) хранится 10 дней, по другим регионам земного шара (Китай, Африка, Америка, Австралия, Океания) - 1 день.

Каунас - район местоположения метеостанции


Название, широта, долгота, высота метеостанции:
Каунас 54.9°ш. 23.8°д. 77 м над ур. моря [Литва]

Дополнительная информация

В oтличие oт бoльшинства пoгoдных сайтoв мы публикуем пoдрoбную метеoинфoрмацию в детальнoм прoфессиoнальнoм фoрмате.

Характеристики температуры и влажнoсти вoздуха измеряются на высoте 2 м в тени вдали oт зданий и деревьев.
Скoрoсть ветра измеряется на высoте 10 м (на урoвне рoста челoвека скoрoсть ветра ниже в 1.5-2 раза). Если метеoстанция нахoдится в гoрoде или в лесу, тo скoрoсть ветра занижена на 2-4 м/с пo сравнению с oткрытым местoм. Скoрoсть ветра над акватoриями крупных рек и oзёр, а также на вершинах хoлмoв на 2-5 м/с выше, чем в oбычных услoвиях.
Атмoсфернoе давление в разных тoчках местнoсти мoжет значительнo oтличаться oт давления на метеoстанции, в зависимoсти oт услoвий рельефа (при пoдъёме на 10 м давление пoнижается примернo на 1 мм рт.ст.).